sat.trackr.live / text

‹ back to catalog

STARLINK-30993

NORAD 58489 · 2023-186S

PAYLOAD ACTIVE UNKNOWN

§ Identity

Operator
Country
US
Launch date
2023-12-03
Launch site
AFETR
Launch vehicle
Mass (kg)
RCS (m²)

Purposes: comms

External: N2YO · Heavens-Above · Gunter

§ Orbital elements

Epoch: 2026-09-20T15:50:01.771008Z

Period
94.27 min
Inclination
43.0024°
Eccentricity
0.0002340
Mean motion
15.27576255 rev/d
Perigee alt
481.5 km
Apogee alt
484.7 km
Semi-major
6,861.2 km
B*
4.6802e-5
RAAN
42.6166°
Arg perigee
272.5015°
Mean anomaly
87.5569°
Rev number
15,570

§ Raw data

STARLINK-309931 58489U 23186S   26263.65974272  .00001025  00000+0  46802-4 0  99962 58489  43.0024  42.6166 0002340 272.5015  87.5569 15.27576255155708

JSON: /api/v1/satellites/58489 · /tle

For live sub-satellite position, see the globe view (requires WebGL).

§ Visibility from observer

Set your observer location to see the next 7 days of passes ≥ 10°. The values pass through the URL so the page stays shareable.

No JS? Fill the form by hand. The geolocation button needs JavaScript.